Miscellaneous Local Product
Issued by NWS Hastings, NE

Home | Current Version | Previous Version | Text Only | Print | Product List | Glossary On
Versions: 1 2 3 4 5 6 7 8 9 10 11 12 13 14 15 16 17 18 19 20 21 22 23 24 25 26 27 28 29 30 31 32 33 34 35 36 37 38 39 40 41 42 43 44 45 46 47 48 49 50
000
AXUS43 KGID 230102
MISGRI

GID CWA HOURLY WEATHER ROUNDUP
NATIONAL WEATHER SERVICE HASTINGS NE
800 PM CDT THU JUN 22 2017

NOTE: "FAIR" INDICATES FEW OR NO CLOUDS BELOW 12,000 FEET WITH NO
SIGNIFICANT WEATHER AND/OR OBSTRUCTIONS TO VISIBILITY.

...SOUTH CENTRAL NEBRASKA...

CITY           SKY/WX    TMP DP  RH WIND       PRES   REMARKS
GRAND ISLAND   MOSUNNY   80  62  54 N17       29.74R
HASTINGS       SUNNY     81  61  50 N17G26    29.74R
KEARNEY        MOSUNNY   81  57  44 N20G26    29.77R
ORD            SUNNY     73  57  57 N18G24    29.79R
YORK           SUNNY     82  64  54 N28       29.68R
AURORA         MOSUNNY   81  62  53 N22       29.72R
LEXINGTON      PTSUNNY   78  59  51 N16       29.82R
HOLDREGE       SUNNY     79  59  49 N16       29.77R
HEBRON         CLEAR     89  65  45 N10       29.63R HX  91

...NEBRASKA PANHANDLE...

CITY           SKY/WX    TMP DP  RH WIND       PRES   REMARKS
CHADRON        SUNNY     75  40  28 NE16      29.93R
ALLIANCE       MOSUNNY   75  48  38 N12       29.95R
SCOTTSBLUFF    CLOUDY    76  49  38 NE14      29.94R
SIDNEY         PTSUNNY   75  53  46 NE12      29.97R

...WESTERN AND NORTH CENTRAL NEBRASKA...

CITY           SKY/WX    TMP DP  RH WIND       PRES   REMARKS
VALENTINE      SUNNY     78  43  28 NE13      29.89R
AINSWORTH      PTSUNNY   73  49  42 NE14      29.89R
ONEILL         MOSUNNY   72  58  62 N10       29.83R
BROKEN BOW     MOSUNNY   75  56  51 N13G21    29.82R
IMPERIAL       PTSUNNY   77  55  46 NE15      29.89R
NORTH PLATTE   MOSUNNY   78  55  44 N14G23    29.87R
MCCOOK         MOSUNNY   82  60  47 NE21      29.81R

...EASTERN NEBRASKA...

CITY           SKY/WX    TMP DP  RH WIND       PRES   REMARKS
NORFOLK        CLOUDY    75  63  66 N21G28    29.74R
SO SIOUX CITY  CLOUDY    77  66  68 N15G24    29.72R
TEKAMAH        CLOUDY    83  64  52 N17G25    29.67R
COLUMBUS       CLOUDY    80  63  55 N22       29.72R
ALBION         SUNNY     75  61  62 N17G24    29.78R
OMAHA EPPLEY   MOCLDY    87  72  60 N9        29.63R HX  93
OFFUTT AFB     PTCLDY    85  71  62 SE7       29.63R
MILLARD        CLOUDY    89  70  53 N3        29.64R HX  94
LINCOLN        CLOUDY    86  70  58 NE8       29.64R HX  90
NEBRASKA CITY  CLEAR     85  70  60 SE9       29.64R
BEATRICE       PTCLDY    87  70  56 SE8       29.61R HX  92
FALLS CITY     PTCLDY    85  70  60 S9        29.63S

...NORTHERN KANSAS...

CITY           SKY/WX    TMP DP  RH WIND       PRES   REMARKS
GOODLAND       CLOUDY    81  58  45 N13       29.87R
HILL CITY      MOSUNNY   88  67  49 N20G25    29.72R HX  91
NORTON         CLEAR     81  55  41 N15G22    29.77
PHILLIPSBURG   SUNNY     86  64  48 N18G25    29.71R
SMITH CENTER   CLOUDY    88  66  48 N16G25    29.67R HX  90
HAYS           CLOUDY    95  66  38 NE8       29.65R HAZE    HX  98
RUSSELL        SUNNY     95  63  34 S8        29.62R HX  96
CONCORDIA      CLEAR     91  65  41 S9        29.60R HX  93
SALINA         CLEAR     95  62  33 S13       29.61R HX  96
TOPEKA         PTCLDY    86  72  62 S9        29.65R HX  92



USA.gov is the U.S. government's official web portal to all federal, state and local government web resources and services.